Other Public Products
Issued by NWS Grand Forks, ND

Home | Current Version | Previous Version | Text Only | Print | Product List | Glossary Off
Versions: 1 2 3 4 5 6 7 8 9 10 11 12 13 14 15 16 17 18 19 20 21 22 23 24 25 26 27 28 29 30 31 32 33 34 35 36 37 38 39 40 41 42 43 44 45 46 47 48 49 50

000
FPUS83 KFGF 301431
OPUFGF
PRAIRIE TO PINES WEATHER ROUNDUP
NATIONAL WEATHER SERVICE EASTERN NORTH DAKOTA/GRAND FORKS ND
900 AM CDT SAT AUG 30 2014

 **SATELLITE DATA USED TO AUGMENT SKY COVER AT AUTOMATED STATIONS**
 *****  WEATHER ACROSS EASTERN NORTH DAKOTA  *****

CITY           SKY/WX    TMP DP  RH WIND       PRES   REMARKS
GRAND FORKS    SUNNY     54  51  90 N6        29.94F
GRAND FORKS AF SUNNY     54  54  99 NE7       29.95F
GRAND CITY NWS   N/A     55 N/A N/A N7          N/A
BUXTON           N/A     56  55  97 N6          N/A
DEVILS LAKE    SUNNY     55  46  71 E7        29.94F
FARGO          CLOUDY    56  52  86 N12       29.92S
WAHPETON ARPT  CLOUDY    57  52  82 N8        29.91S
$$

 *****  WEATHER ACROSS CENTRAL AND WESTERN NORTH DAKOTA  *****

CITY           SKY/WX    TMP DP  RH WIND       PRES   REMARKS
JAMESTOWN      MOSUNNY   56  51  84 VRB3      29.95F
BISMARCK       FOG       49  49 100 CALM      29.97S VSB 1/4
MINOT          SUNNY     54  50  86 E6        29.93S
MINOT AFB      SUNNY     54  54  99 S8        29.93S
GARRISON         N/A     58  55  90 S9        29.93F
WILLISTON      SUNNY     60  53  77 SE9       29.85F
DICKINSON      MOSUNNY   55  53  93 S17       29.89F
HETTINGER      CLOUDY    55  53  93 SE12      29.93F
$$

 *****  OTHER OBSERVATIONS NORTHEAST NORTH DAKOTA  *****

CITY           SKY/WX    TMP DP  RH WIND       PRES   REMARKS
WALHALLA       FAIR      54  52  94 CALM      29.97S
LANGDON        FAIR      54  50  87 CALM      29.97S
CAVALIER       FAIR      54  48  82 CALM      29.96F
GRAFTON        FAIR      54  50  87 NE5       29.95F
CANDO          FAIR      54  50  87 CALM      29.97S
FORT TOTTEN      N/A     59  54  82 CALM      29.95S
ROLLA          FAIR      54  50  87 SE6       29.97F
RUGBY          FAIR      55  50  82 S5        29.95F
 ***** THE ABOVE OBSERVATIONS ARE NON NWS ARE NOT QUALITY
        CONTROLLED AND MAY MIS-REPORT RAIN FOR SNOW...
$$

 *****  OTHER OBSERVATIONS SOUTHEAST NORTH DAKOTA *****

CITY           SKY/WX    TMP DP  RH WIND       PRES   REMARKS
COOPERSTOWN    NOT AVBL
VALLEY CITY    FAIR      57  57 100 N7        29.95S
OAKES            N/A     59  55  88 N7        29.95S
GWINNER        MOSUNNY   61  55  82 N8        29.95S
BUFFALO          N/A     57  52  81 CALM        N/A
WYNDMERE       NOT AVBL
 ***** THE ABOVE OBSERVATIONS ARE NON NWS ARE NOT QUALITY
       CONTROLLED AND MAY MIS-REPORT RAIN FOR SNOW...
$$

  *****  WEATHER ACROSS NORTHERN MINNESOTA  *****

CITY           SKY/WX    TMP DP  RH WIND       PRES   REMARKS
FLAG ISLAND    PTSUNNY   57  54  88 NE6       29.94S
WARROAD        PTSUNNY   61  55  82 N7        29.95S
ROSEAU         SUNNY     57  52  82 NE6       29.95S
HALLOCK        SUNNY     54  50  87 NE5       29.95S
THF RVR FALLS  CLOUDY    54  52  94 NE10      29.94F
HALSTAD          N/A     55  54  97 N8          N/A
FOSSTON        CLOUDY    57  55  94 NE12      29.93S
BAUDETTE       CLOUDY    57  54  89 NE7       29.94S
WASKISH        CLOUDY    57  55  94 NE7       29.93F
CROOKSTON      MOSUNNY   55  52  88 E6        29.95F
$$
  *****  WEATHER ACROSS CENTRAL AND WEST MINNESOTA  *****

CITY           SKY/WX    TMP DP  RH WIND       PRES   REMARKS
BEMIDJI        CLOUDY    57  54  88 NE9       29.91F
PARK RAPIDS    CLOUDY    59  55  87 NE6       29.89F
WADENA         CLOUDY    59  57  94 N5        29.89S
DETROIT LAKES  CLOUDY    61  55  82 NE7       29.91S
MOORHEAD       CLOUDY    57  57 100 N10       29.93S
FERGUS FALLS   CLOUDY    61  57  88 NE5       29.89F
ELBOW LAKE     CLOUDY    60  59  96 N8        29.89F
MORRIS MN      CLOUDY    61  61 100 NW9       29.88F
STAPLES        RAIN      59  57  94 N3        29.89R
WHEATON        CLOUDY    57  54  88 NW7       29.92F
$$
  *****  WEATHER ELSEWHERE ACROSS MINNESOTA  *****

CITY           SKY/WX    TMP DP  RH WIND       PRES   REMARKS
DULUTH         CLOUDY    64  60  87 N7        29.86R
INTRNTL FALLS  CLOUDY    60  53  77 NE10      29.92F
ELY            CLOUDY    59  55  88 N3        29.89R
CLOQUET        CLOUDY    63  61  94 N6        29.86S
BRAINERD       CLOUDY    62  61  96 N8        29.87S
HIBBING        CLOUDY    61  57  87 N8        29.89R
ALEXANDRIA     CLOUDY    62  61  96 N9        29.90R FOG
SAINT CLOUD    PTSUNNY   70  65  84 N6        29.84S
MINNEAPOLIS    MOSUNNY   69  64  84 N9        29.83R
$$

  *****  WEATHER ACROSS SOUTH DAKOTA  *****

CITY           SKY/WX    TMP DP  RH WIND       PRES   REMARKS
SIOUX FALLS    CLOUDY    65  62  90 NW9       29.92S
BROOKINGS      NOT AVBL
WATERTOWN      CLOUDY    60  57  89 NW10      29.92S
HURON          CLOUDY    61  57  87 N9        29.94S
SISSETON         N/A     59  56  89 N8        29.91S
ABERDEEN       CLOUDY    57  55  93 N8        29.95S
MITCHELL       CLOUDY    60  58  92 N8        29.96R
PIERRE         SUNNY     57  55  93 E3        29.96S
MOBRIDGE       SUNNY     56  55  97 SE6       29.94F
RAPID CITY     SUNNY     57  56  96 SE10      29.92F
$$

  *****  SOME WEATHER IN NEARBY STATES *****

CITY           SKY/WX    TMP DP  RH WIND       PRES   REMARKS
GLASGOW MT     PTSUNNY   58  55  90 E16G29    29.70F
GREAT FALLS MT CLOUDY    62  43  49 SW12      29.82R
CHEYENNE WY    SUNNY     56  48  74 SW5       30.11F
SCOTTSBLUFF NE MOSUNNY   63  56  78 SE7       30.00F
OMAHA NE       CLOUDY    66  64  93 N10       29.94R FOG
DES MOINES IA  CLOUDY    69  66  90 W8        29.88S
DAVENPORT IA   CLOUDY    70  66  87 SW15      29.86R
CHICAGO IL     PTSUNNY   75  67  76 SW12      29.85S
EAU CLAIRE WI  CLOUDY    68  66  93 NW5       29.79R
LA CROSSE WI   LGT RAIN  69  66  90 NW8       29.77R FOG
$$

  *****  SOME NATIONAL WEATHER *****

CITY           SKY/WX    TMP DP  RH WIND       PRES   REMARKS
LA GUARDIA NY  PTSUNNY   73  56  54 S6        30.26S
RALEIGH NC     PTSUNNY   76  70  82 S3        30.24R
ATLANTA GA     PTSUNNY   79  71  76 S3        30.17S
NEW ORLEANS LA PTSUNNY   85  77  77 SE13      30.01S HX  95
OKLAHOMA CITY  MOSUNNY   76  68  76 SW7       29.96F
ALBUQUERQUE NM PTSUNNY   64  43  46 N6        30.19R
SALT LAKE CITY PTSUNNY   74  43  32 SE9       29.93R
LOS ANGELES CA PTCLDY    67  64  90 N3        29.83R
BOISE ID       CLOUDY    64  44  48 NW8       29.90R
SEATTLE WA     CLOUDY    61  56  83 SW3       29.93R
$$

*** WEATHER ACROSS MANITOBA...SASKATCHEWAN AND ONTARIO ***
                ***ONTARIO***

CITY           SKY/WX    TMP DP  RH WIND       PRES   REMARKS
GERALDTON      CLOUDY    59  55  88 NE7       29.89R
THUNDER BAY    CLOUDY    61  59  94 N5        29.85R
SIOUX LOOKOUT  PTSUNNY   59  54  82 N3        29.95R
TORONTO        LGT RAIN  68  63  83 S7        30.03F
BIG TROUT LK   SUNNY     54  41  62 N7        29.96S
PICKLE LAKE    PTSUNNY   54  50  87 NE5       29.97R
DRYDEN         PTSUNNY   59  55  88 NE7       29.95S
KENORA         PTSUNNY   55  52  88 E9        29.97S
$$
                *** MANITOBA***

CITY           SKY/WX    TMP DP  RH WIND       PRES   REMARKS
BRANDON        SUNNY     52  48  87 SE5       29.95F
DAUPHIN        SUNNY     52  50  93 NE2       29.92F
ISLAND LAKE    MOSUNNY   55  46  71 CALM      29.98S
PILOT MOUND      N/A     52  50  93 SE5         N/A
THE PAS        PTSUNNY   57  52  82 SE12G17   29.84F
THOMPSON       PTSUNNY   50  48  93 SE2       29.92F
WINNIPEG       SUNNY     55  50  82 NE3       29.96F
LYNN LAKE      SUNNY     48  45  87 MISG      29.86F
CHURCHILL      MOSUNNY   50  41  71 W13       29.83S
GILLAM         PTSUNNY   50  45  81 SW7       29.92F
$$
                ***SASKATCHEWAN***

CITY           SKY/WX    TMP DP  RH WIND       PRES   REMARKS
ESTEVAN        MOSUNNY   57  54  88 S9        29.87F
KINDERSLEY     PTSUNNY   57  54  88 NW7       29.63R
LLOYDMINSTER   PTSUNNY   54  52  94 W14       29.64R
PRINCE ALBERT  LGT RAIN  54  52  94 SE9       29.66F
REGINA         MOSUNNY   57  52  82 SE18G26   29.75
YORKTON        SUNNY     54  48  82 S10       29.84F


USA.gov is the U.S. government's official web portal to all federal, state and local government web resources and services.